When you browse on this site, cookies collect data to enhance your experience and personalize the content and advertising you see.
Visit our Privacy Policy to learn more. By continuing to use the site, you agree to this use of cookies and data.
  • In Lithuania
  • List of Countries
  • For 7 days
  • Water Temperature
  • Weather Map
  • Weather Widgets
  • user-avatar
    Login

    Hourly Weather Tibissa

    Today, 27 February, Thursday

    Time Temperature Precipitation Wind Pressure Humidity
    00:00 +8°C° 0 mm 3 mps 685 mmHg 88%
    01:00 +7°C° 0 mm 4 mps 685 mmHg 93%
    02:00 +6°C° 0 mm 4 mps 685 mmHg 92%
    03:00 +6°C° 0 mm 4 mps 685 mmHg 92%
    04:00 +5°C° 0 mm 4 mps 684 mmHg 91%
    05:00 +5°C° 0 mm 4 mps 685 mmHg 89%
    06:00 +5°C° 0 mm 4 mps 685 mmHg 87%
    07:00 +3°C° 0 mm 5 mps 685 mmHg 86%
    08:00 +6°C° 0 mm 5 mps 686 mmHg 76%
    09:00 +7°C° 0 mm 5 mps 687 mmHg 66%
    10:00 +8°C° 0 mm 5 mps 687 mmHg 57%
    11:00 +10°C° 0 mm 5 mps 687 mmHg 48%
    12:00 +12°C° 0 mm 5 mps 687 mmHg 40%
    13:00 +14°C° 0 mm 5 mps 688 mmHg 31%
    14:00 +14°C° 0 mm 5 mps 688 mmHg 30%
    15:00 +14°C° 0 mm 5 mps 687 mmHg 29%
    16:00 +15°C° 0 mm 5 mps 687 mmHg 28%
    17:00 +14°C° 0 mm 4 mps 687 mmHg 33%
    18:00 +13°C° 0 mm 3 mps 687 mmHg 39%
    19:00 +12°C° 0 mm 2 mps 687 mmHg 44%
    20:00 +10°C° 0 mm 2 mps 687 mmHg 50%
    21:00 +11°C° 0 mm 1 mps 687 mmHg 56%
    22:00 +10°C° 0 mm 1 mps 687 mmHg 62%
    23:00 +10°C° 0 mm 1 mps 687 mmHg 63%

    Tomorrow, 28 February, Friday

    Time Temperature Precipitation Wind Pressure Humidity
    00:00 +8°C° 0 mm 2 mps 687 mmHg 63%
    01:00 +8°C° 0 mm 2 mps 687 mmHg 63%
    02:00 +8°C° 0 mm 2 mps 687 mmHg 62%
    03:00 +8°C° 0 mm 2 mps 687 mmHg 62%
    04:00 +8°C° 0 mm 2 mps 687 mmHg 61%
    05:00 +7°C° 0 mm 2 mps 687 mmHg 62%
    06:00 +7°C° 0 mm 2 mps 687 mmHg 62%
    07:00 +7°C° 0 mm 2 mps 687 mmHg 62%
    08:00 +9°C° 0 mm 2 mps 688 mmHg 53%
    09:00 +11°C° 0 mm 3 mps 688 mmHg 45%
    10:00 +13°C° 0 mm 3 mps 689 mmHg 37%
    11:00 +14°C° 0 mm 4 mps 689 mmHg 34%
    12:00 +15°C° 0 mm 4 mps 689 mmHg 31%
    13:00 +18°C° 0 mm 4 mps 689 mmHg 29%
    14:00 +18°C° 0 mm 4 mps 689 mmHg 28%
    15:00 +18°C° 0 mm 4 mps 688 mmHg 28%
    16:00 +19°C° 0 mm 4 mps 688 mmHg 27%
    17:00 +17°C° 0 mm 3 mps 688 mmHg 32%
    18:00 +16°C° 0 mm 2 mps 688 mmHg 38%
    19:00 +14°C° 0 mm 2 mps 687 mmHg 43%
    20:00 +13°C° 0 mm 2 mps 687 mmHg 46%
    21:00 +13°C° 0 mm 1 mps 688 mmHg 48%
    22:00 +12°C° 0 mm 1 mps 688 mmHg 50%
    23:00 +12°C° 0 mm 1 mps 687 mmHg 50%

    Day after tomorrow, 29 February, Saturday

    Time Temperature Precipitation Wind Pressure Humidity
    00:00 +11°C° 0 mm 1 mps 687 mmHg 50%
    01:00 +10°C° 0 mm 2 mps 687 mmHg 50%
    02:00 +10°C° 0 mm 2 mps 687 mmHg 49%
    03:00 +9°C° 0 mm 2 mps 686 mmHg 49%
    04:00 +9°C° 0 mm 3 mps 686 mmHg 48%
    05:00 +9°C° 0 mm 3 mps 686 mmHg 49%
    06:00 +8°C° 0 mm 4 mps 685 mmHg 49%
    07:00 +7°C° 0 mm 4 mps 685 mmHg 50%
    08:00 +10°C° 0 mm 5 mps 686 mmHg 45%
    09:00 +13°C° 0 mm 6 mps 686 mmHg 40%
    10:00 +15°C° 0 mm 7 mps 687 mmHg 34%
    11:00 +16°C° 0 mm 8 mps 687 mmHg 32%
    12:00 +18°C° 0 mm 8 mps 687 mmHg 29%
    13:00 +19°C° 0 mm 9 mps 687 mmHg 26%
    14:00 +20°C° 0 mm 8 mps 686 mmHg 26%
    15:00 +20°C° 0 mm 8 mps 686 mmHg 26%
    16:00 +20°C° 0 mm 7 mps 685 mmHg 26%
    17:00 +17°C° 0 mm 6 mps 685 mmHg 30%
    18:00 +17°C° 0 mm 4 mps 685 mmHg 35%
    19:00 +14°C° 0 mm 3 mps 685 mmHg 39%
    20:00 +13°C° 0 mm 3 mps 685 mmHg 40%
    21:00 +13°C° 0 mm 3 mps 685 mmHg 40%
    22:00 +13°C° 0 mm 3 mps 685 mmHg 40%
    23:00 +12°C° 0 mm 3 mps 685 mmHg 40%

    1 March, Sunday

    Time Temperature Precipitation Wind Pressure Humidity
    00:00 +13°C° 0 mm 2 mps 685 mmHg 39%
    01:00 +13°C° 0 mm 2 mps 685 mmHg 38%
    02:00 +11°C° 0 mm 3 mps 684 mmHg 38%
    03:00 +11°C° 0 mm 3 mps 684 mmHg 37%
    04:00 +11°C° 0 mm 3 mps 684 mmHg 36%
    05:00 +11°C° 0 mm 3 mps 684 mmHg 37%
    06:00 +10°C° 0 mm 2 mps 684 mmHg 38%
    07:00 +10°C° 0 mm 2 mps 684 mmHg 39%
    08:00 +13°C° 0 mm 3 mps 684 mmHg 35%
    09:00 +16°C° 0 mm 3 mps 685 mmHg 30%
    10:00 +19°C° 0 mm 4 mps 686 mmHg 25%
    11:00 +20°C° 0 mm 5 mps 686 mmHg 23%
    12:00 +21°C° 0 mm 7 mps 686 mmHg 21%
    13:00 +23°C° 0 mm 9 mps 686 mmHg 19%
    14:00 +23°C° 0 mm 9 mps 685 mmHg 19%
    15:00 +22°C° 0 mm 9 mps 685 mmHg 19%
    16:00 +22°C° 0 mm 9 mps 684 mmHg 19%
    17:00 +20°C° 0 mm 7 mps 684 mmHg 26%
    18:00 +17°C° 0 mm 5 mps 684 mmHg 32%
    19:00 +17°C° 0 mm 3 mps 684 mmHg 39%
    20:00 +16°C° 0 mm 3 mps 685 mmHg 46%
    21:00 +15°C° 0 mm 2 mps 685 mmHg 54%
    22:00 +14°C° 0 mm 1 mps 685 mmHg 61%
    23:00 +14°C° 0 mm 1 mps 685 mmHg 64%

    2 March, Monday

    Time Temperature Precipitation Wind Pressure Humidity
    00:00 +13°C° 0 mm 1 mps 685 mmHg 67%
    01:00 +12°C° 0 mm 0 mps 685 mmHg 70%
    02:00 +11°C° 0 mm 0 mps 684 mmHg 71%
    03:00 +11°C° 0 mm 1 mps 684 mmHg 72%
    04:00 +11°C° 0 mm 1 mps 684 mmHg 73%
    05:00 +11°C° 0 mm 1 mps 683 mmHg 73%
    06:00 +11°C° 0 mm 1 mps 683 mmHg 73%
    07:00 +10°C° 0 mm 1 mps 683 mmHg 73%
    08:00 +11°C° 0 mm 3 mps 684 mmHg 63%
    09:00 +14°C° 0 mm 5 mps 684 mmHg 52%
    10:00 +16°C° 0 mm 7 mps 685 mmHg 42%
    11:00 +16°C° 0 mm 9 mps 684 mmHg 38%
    12:00 +17°C° 0 mm 10 mps 684 mmHg 35%
    13:00 +18°C° 0 mm 11 mps 684 mmHg 31%
    14:00 +18°C° 0 mm 11 mps 683 mmHg 33%
    15:00 +18°C° 0 mm 11 mps 683 mmHg 34%
    16:00 +18°C° 0 mm 11 mps 682 mmHg 35%
    17:00 +17°C° 0 mm 9 mps 682 mmHg 40%
    18:00 +16°C° 0 mm 8 mps 682 mmHg 45%
    19:00 +15°C° 0 mm 6 mps 682 mmHg 50%
    20:00 +15°C° 0 mm 6 mps 682 mmHg 51%
    21:00 +15°C° 0 mm 6 mps 682 mmHg 52%
    22:00 +15°C° 0 mm 7 mps 682 mmHg 54%
    23:00 +14°C° 0.4 mm 6 mps 681 mmHg 58%

    3 March, Tuesday

    Time Temperature Precipitation Wind Pressure Humidity
    00:00 +13°C° 0.4 mm 6 mps 681 mmHg 62%
    01:00 +12°C° 0.4 mm 5 mps 681 mmHg 66%
    02:00 +12°C° 0.1 mm 5 mps 681 mmHg 70%
    03:00 +10°C° 0.1 mm 5 mps 680 mmHg 74%
    04:00 +10°C° 0.1 mm 6 mps 680 mmHg 78%
    05:00 +9°C° 0 mm 5 mps 680 mmHg 81%
    06:00 +8°C° 0 mm 5 mps 680 mmHg 83%
    07:00 +8°C° 0 mm 5 mps 680 mmHg 85%
    08:00 +9°C° 0 mm 7 mps 681 mmHg 75%
    09:00 +9°C° 0 mm 10 mps 682 mmHg 65%
    10:00 +10°C° 0 mm 13 mps 682 mmHg 55%
    11:00 +9°C° 0 mm 13 mps 682 mmHg 59%
    12:00 +8°C° 0 mm 12 mps 682 mmHg 64%
    13:00 +7°C° 0 mm 12 mps 682 mmHg 68%
    14:00 +7°C° 0 mm 12 mps 682 mmHg 62%
    15:00 +8°C° 0 mm 12 mps 683 mmHg 55%
    16:00 +8°C° 0 mm 12 mps 683 mmHg 49%
    17:00 +7°C° 0 mm 11 mps 683 mmHg 51%
    18:00 +6°C° 0 mm 10 mps 683 mmHg 54%
    19:00 +5°C° 0 mm 9 mps 683 mmHg 56%
    20:00 +5°C° 0 mm 9 mps 684 mmHg 59%
    21:00 +4°C° 0 mm 8 mps 684 mmHg 62%
    22:00 +4°C° 0 mm 8 mps 684 mmHg 65%
    23:00 +4°C° 0 mm 7 mps 684 mmHg 64%
    Show more